Location: Newark
(48.0000°N, 67.0000°E)
Time: 08:08:46
(UTC+00:00)

A-11 Canister half - Pass Details

Date: 25 February 2020
Orbit: 1517 x 1683 km, 47.2° (Epoch: 04 April)

Event Time Altitude Azimuth Distance (km) Brightness Sun altitude
Rises 14:50:05 0° 280° (W) 4,875 13.4 -17.6°
Reaches altitude 10° 14:53:15 10° 280° (W) 3,867 12.4 -18.2°
Maximum altitude 15:03:05 77° 197° (SSW) 1,625 9.1 -19.8°
Enters shadow 15:08:43 29° 116° (ESE) 2,581 9.6 -20.7°
